Overview Statistics Trail Chart Weather Telemetry Raw packets
 

This is the latest recevied weather packets stored in our database for station/object K7FLA. If no packets are shown the sender has not sent any weather packets the latest 10 day(s).

<< 97 98 99 100 101 102 103 >>
Time Temp. Humidity Pressure Rain* Wind** Luminosity Snow
1787937835 40° C 25% 1096.7 hPa 0 mm - 626 W/m² -
1787937531 40° C 22% 1096.6 hPa 0 mm - 631 W/m² -
1787937227 39.44° C 27% 1096.7 hPa 0 mm - 665 W/m² -
1787936922 39.44° C 25% 1096.6 hPa 0 mm - 457 W/m² -
1787936621 38.89° C 26% 1096.7 hPa 0 mm - 442 W/m² -
1787936320 38.89° C 27% 1096.7 hPa 0 mm - 512 W/m² -
1787936016 38.89° C 27% 1096.7 hPa 0 mm - 473 W/m² -
1787935712 38.89° C 27% 1096.5 hPa 0 mm - 528 W/m² -
1787935408 38.89° C 28% 1096.3 hPa 0 mm - 511 W/m² -
1787935103 38.33° C 28% 1096.4 hPa 0 mm - 495 W/m² -
1787934799 37.78° C 29% 1096.3 hPa 0 mm - 486 W/m² -
1787934498 36.67° C 30% 1096.3 hPa 0 mm - 470 W/m² -
1787934193 36.11° C 29% 1096.2 hPa 0 mm - 475 W/m² -
1787933894 36.67° C 30% 1096.3 hPa 0 mm - 410 W/m² -
1787933586 37.22° C 30% 1096 hPa 0 mm - 258 W/m² -
1787933280 37.22° C 29% 1096.2 hPa 0 mm - 337 W/m² -
1787932980 37.22° C 31% 1096 hPa 0 mm - 396 W/m² -
1787932674 36.67° C 30% 1096 hPa 0 mm - 358 W/m² -
1787932374 36.67° C 32% 1096 hPa 0 mm - 341 W/m² -
1787932068 36.11° C 31% 1096.1 hPa 0 mm - 328 W/m² -
1787931767 35.56° C 33% 1096 hPa 0 mm - 320 W/m² -
1787931461 35° C 32% 1096 hPa 0 mm - 253 W/m² -
1787931156 35.56° C 32% 1096.1 hPa 0 mm - 317 W/m² -
1787930855 35.56° C 32% 1096.1 hPa 0 mm - 285 W/m² -
1787930550 35° C 33% 1096.1 hPa 0 mm - 256 W/m² -

* Rain latest hour (hover to see other rain measurements)
** Current wind speed in m/s (hover to see current wind gust speed)